EW6800 Weather Reports


Display with metric or nautical units.
time (UTC)temp
F
wind
direction
speed
MPH
gust
MPH
rain 1hr
in
rain 24hr
in
rain mn
in
humidity
%
barometer
mb
20260506005543 50 308 1.0 4.0 0.00 0.00 0.00 91 1016.2
20260506005042 50 308 1.0 4.0 0.00 0.00 0.00 91 1016.2
20260506004555 50 333 1.0 4.0 0.00 0.00 0.00 90 1016.2
20260506004039 50 333 2.0 5.0 0.00 0.00 0.00 90 1016.2
20260506003542 51 315 3.0 5.0 0.00 0.00 0.00 90 1016.1
20260506003053 51 310 2.0 4.0 0.00 0.00 0.00 90 1016.0
20260506002543 51 311 2.0 5.0 0.00 0.00 0.00 90 1016.0
20260506002043 51 303 2.0 5.0 0.00 0.00 0.00 90 1016.0
20260506001549 51 304 3.0 7.0 0.00 0.00 0.00 89 1015.9
20260506001043 51 311 3.0 7.0 0.00 0.00 0.00 89 1015.9
20260506000544 51 307 4.0 8.0 0.00 0.00 0.00 89 1015.9
20260506000050 51 319 3.0 8.0 0.00 0.00 0.00 88 1015.8
20260505235544 51 312 4.0 8.0 0.00 0.00 0.00 88 1015.8
20260505235045 52 309 2.0 8.0 0.00 0.00 0.00 88 1015.8
20260505234605 52 307 2.0 8.0 0.00 0.00 0.00 87 1015.8
20260505234042 52 315 2.0 5.0 0.00 0.00 0.00 87 1015.8
20260505233542 52 325 2.0 5.0 0.00 0.00 0.00 87 1015.8
20260505233048 52 314 2.0 4.0 0.00 0.00 0.00 87 1015.8
20260505232543 52 317 2.0 5.0 0.00 0.00 0.00 87 1015.8
20260505232046 51 317 2.0 5.0 0.00 0.00 0.00 87 1015.9
20260505231548 51 301 2.0 5.0 0.00 0.00 0.00 88 1015.9
20260505231042 51 277 1.0 5.0 0.00 0.00 0.00 88 1015.9
20260505230543 51 320 2.0 4.0 0.00 0.00 0.00 88 1016.0
20260505230054 51 321 2.0 4.0 0.00 0.00 0.00 88 1015.9
20260505225543 51 309 1.0 4.0 0.00 0.00 0.00 89 1015.9
20260505225043 51 309 2.0 4.0 0.00 0.00 0.00 89 1016.0
20260505224600 51 317 2.0 5.0 0.00 0.00 0.00 89 1016.0
20260505224047 51 313 2.0 5.0 0.00 0.00 0.00 89 1016.1
20260505223542 51 315 2.0 5.0 0.00 0.00 0.00 89 1016.0
20260505223054 51 303 3.0 5.0 0.00 0.00 0.00 89 1016.2
20260505222545 51 317 2.0 5.0 0.00 0.00 0.00 89 1016.2
20260505222043 51 326 1.0 5.0 0.00 0.00 0.00 89 1016.2
20260505221551 51 326 3.0 5.0 0.00 0.00 0.00 89 1016.3
20260505221043 51 318 3.0 5.0 0.00 0.00 0.00 89 1016.2
20260505220546 51 309 3.0 8.0 0.00 0.00 0.00 89 1016.1
20260505220051 51 303 2.0 8.0 0.00 0.00 0.00 89 1016.1
20260505215543 51 309 3.0 8.0 0.00 0.00 0.00 89 1016.2
20260505215047 51 308 2.0 8.0 0.00 0.00 0.00 89 1016.1
20260505214613 51 318 3.0 8.0 0.00 0.00 0.00 89 1016.2
20260505214043 51 311 4.0 7.0 0.00 0.00 0.00 89 1016.3
20260505213542 51 300 2.0 5.0 0.00 0.00 0.00 90 1016.3
20260505213102 51 313 2.0 5.0 0.00 0.00 0.00 91 1016.2
20260505212542 50 303 2.0 7.0 0.00 0.00 0.00 91 1016.3
20260505212042 50 315 2.0 7.0 0.00 0.00 0.00 92 1016.2
20260505211551 50 299 2.0 6.0 0.00 0.00 0.00 92 1016.2
20260505211044 50 315 2.0 7.0 0.00 0.00 0.00 93 1016.1
20260505210543 50 306 3.0 7.0 0.00 0.00 0.00 94 1016.0
20260505210052 50 312 2.0 7.0 0.00 0.00 0.00 95 1016.0
20260505205542 50 313 2.0 7.0 0.00 0.00 0.00 95 1016.1
20260505205045 49 297 3.0 6.0 0.00 0.00 0.00 95 1016.2
20260505204558 49 310 3.0 7.0 0.00 0.00 0.00 95 1016.2
20260505204044 49 302 3.0 7.0 0.00 0.00 0.00 95 1016.2
20260505203543 49 304 3.0 5.0 0.00 0.00 0.00 96 1016.2
20260505203054 49 304 2.0 4.0 0.00 0.00 0.00 95 1016.2
20260505202543 49 294 2.0 4.0 0.00 0.00 0.00 95 1016.1
20260505202043 49 316 2.0 7.0 0.00 0.00 0.00 96 1016.2
20260505201555 49 316 2.0 7.0 0.00 0.00 0.00 95 1016.3
20260505201043 49 317 4.0 7.0 0.00 0.00 0.00 95 1016.3
20260505200543 49 342 0.0 6.0 0.00 0.00 0.00 95 1016.3
20260505200100 49 327 2.0 6.0 0.00 0.00 0.00 95 1016.3
20260505195542 49 302 2.0 8.0 0.00 0.00 0.00 95 1016.4
20260505195042 49 306 3.0 8.0 0.00 0.00 0.00 95 1016.3
20260505194602 49 313 2.0 7.0 0.00 0.00 0.00 95 1016.3
20260505194042 49 0 0.0 7.0 0.00 0.00 0.00 95 1016.5
20260505193543 49 312 3.0 8.0 0.00 0.00 0.00 95 1016.5
20260505193051 49 326 3.0 8.0 0.00 0.00 0.00 95 1016.4
20260505192543 49 309 3.0 6.0 0.00 0.00 0.00 95 1016.3
20260505192043 49 319 2.0 5.0 0.00 0.00 0.00 95 1016.3
20260505191550 49 313 1.0 4.0 0.00 0.00 0.00 95 1016.3
20260505191045 48 0 1.0 4.0 0.00 0.00 0.00 95 1016.2
20260505190543 48 311 1.0 7.0 0.00 0.00 0.00 95 1016.2
20260505190054 48 321 2.0 7.0 0.00 0.00 0.00 95 1016.2
20260505185543 48 315 3.0 7.0 0.00 0.00 0.00 95 1016.3
20260505185045 48 320 2.0 4.0 0.00 0.00 0.00 95 1016.2
20260505184548 48 319 1.0 4.0 0.00 0.00 0.00 95 1016.1
20260505184043 48 0 2.0 4.0 0.00 0.00 0.00 94 1016.1
20260505183546 48 0 0.0 5.0 0.00 0.00 0.00 94 1016.0
20260505183046 48 0 2.0 5.0 0.00 0.00 0.00 94 1016.2
20260505182545 48 324 1.0 5.0 0.00 0.00 0.00 94 1016.2
20260505182043 48 321 2.0 5.0 0.00 0.00 0.00 94 1016.0
20260505181546 48 325 2.0 7.0 0.00 0.00 0.00 94 1016.0
20260505181045 48 313 2.0 7.0 0.00 0.00 0.00 94 1016.0
20260505180548 48 312 3.0 7.0 0.00 0.00 0.00 94 1015.9
20260505180103 48 288 4.0 7.0 0.00 0.00 0.00 93 1015.9
20260505175543 48 315 2.0 8.0 0.00 0.00 0.00 93 1015.9
20260505175044 48 319 3.0 8.0 0.00 0.00 0.00 93 1015.9
20260505174601 48 315 3.0 7.0 0.00 0.00 0.00 93 1015.8
20260505174044 48 311 4.0 7.0 0.00 0.00 0.00 93 1015.8
20260505173544 48 317 2.0 5.0 0.00 0.00 0.00 93 1015.6
20260505173052 48 315 2.0 4.0 0.00 0.00 0.00 93 1015.6
20260505172544 48 311 2.0 7.0 0.00 0.00 0.00 93 1015.7
20260505172043 48 311 2.0 8.0 0.00 0.00 0.00 93 1015.7
20260505171549 48 312 3.0 8.0 0.00 0.00 0.00 93 1015.5
20260505171044 48 294 4.0 8.0 0.00 0.00 0.00 93 1015.6
20260505170547 48 320 3.0 8.0 0.00 0.00 0.00 93 1015.6
20260505170051 48 290 2.0 9.0 0.00 0.00 0.00 93 1015.5
20260505165543 47 304 3.0 9.0 0.00 0.00 0.00 93 1015.4
20260505165046 47 323 3.0 9.0 0.00 0.00 0.00 93 1015.4
20260505164550 47 296 3.0 9.0 0.00 0.00 0.00 93 1015.3
20260505164045 47 302 3.0 9.0 0.00 0.00 0.00 93 1015.3
20260505163542 47 318 4.0 9.0 0.00 0.00 0.00 93 1015.4
20260505163052 47 293 3.0 5.0 0.00 0.00 0.00 93 1015.3
20260505162543 47 297 2.0 6.0 0.00 0.00 0.00 93 1015.3
20260505162044 47 302 3.0 8.0 0.00 0.00 0.00 93 1015.3
20260505161554 47 319 4.0 8.0 0.00 0.00 0.00 93 1015.3
20260505161045 47 312 3.0 7.0 0.00 0.00 0.00 93 1015.3
20260505160544 47 302 3.0 6.0 0.00 0.00 0.00 93 1015.3
20260505153050 47 325 3.0 7.0 0.00 0.00 0.00 93 1015.0
20260505152542 46 324 3.0 5.0 0.00 0.00 0.00 93 1015.0
20260505152047 46 316 3.0 5.0 0.00 0.00 0.00 94 1015.0
20260505151552 46 315 3.0 5.0 0.00 0.00 0.00 94 1014.9
20260505151043 46 323 2.0 5.0 0.00 0.00 0.00 93 1014.9
20260505150545 46 319 2.0 4.0 0.00 0.00 0.00 93 1014.7
20260505140544 45 311 5.0 8.0 0.00 0.00 0.00 94 1014.3
20260505140105 45 298 3.0 7.0 0.00 0.00 0.00 94 1014.3
20260505124611 46 311 5.0 8.0 0.00 0.00 0.00 93 1014.2
20260505124047 45 315 5.0 8.0 0.00 0.00 0.00 92 1014.1
20260505123543 45 310 5.0 8.0 0.00 0.00 0.00 92 1014.2
20260505123106 45 306 3.0 5.0 0.00 0.00 0.00 92 1014.1
20260505122543 46 316 2.0 4.0 0.00 0.00 0.00 92 1014.1
20260505122043 46 315 2.0 4.0 0.00 0.00 0.00 92 1014.1
20260505121549 46 315 1.0 4.0 0.00 0.00 0.00 92 1014.1
20260505121043 46 315 2.0 5.0 0.00 0.00 0.00 92 1014.2
20260505120543 46 311 2.0 5.0 0.00 0.00 0.00 92 1014.2
20260505120055 46 312 2.0 5.0 0.00 0.00 0.00 92 1014.2
20260505115543 46 317 3.0 5.0 0.00 0.00 0.00 92 1014.2
20260505115043 46 306 3.0 6.0 0.00 0.00 0.00 92 1014.3
20260505114549 46 321 3.0 9.0 0.00 0.00 0.00 91 1014.3
20260505114046 46 315 4.0 9.0 0.00 0.00 0.00 92 1014.1
20260505113545 46 304 6.0 9.0 0.00 0.00 0.00 92 1014.2
20260505113101 45 314 6.0 9.0 0.00 0.00 0.00 91 1014.3
20260505112544 45 315 6.0 10.0 0.00 0.00 0.00 91 1014.3
20260505112045 45 324 6.0 10.0 0.00 0.00 0.00 91 1014.2
20260505111553 45 321 5.0 8.0 0.00 0.00 0.00 91 1014.2
20260505111041 45 317 5.0 8.0 0.00 0.00 0.00 91 1014.1
20260505110544 45 316 5.0 8.0 0.00 0.00 0.00 91 1014.1
20260505102043 45 316 5.0 9.0 0.00 0.00 0.00 95 1014.2
20260505101549 45 311 5.0 9.0 0.00 0.00 0.00 95 1014.3
20260505101044 45 312 5.0 8.0 0.00 0.00 0.00 95 1014.3
20260505100545 45 308 5.0 7.0 0.00 0.00 0.00 95 1014.4
20260505100210 45 314 4.0 6.0 0.00 0.00 0.00 95 1014.4
20260505095543 45 311 4.0 5.0 0.00 0.00 0.00 95 1014.4
20260505095043 45 312 3.0 5.0 0.00 0.00 0.00 95 1014.4
20260505094553 45 315 3.0 7.0 0.00 0.00 0.00 95 1014.4
20260505094044 45 311 4.0 7.0 0.00 0.00 0.00 94 1014.4
20260505093543 45 314 4.0 6.0 0.00 0.00 0.00 94 1014.3
20260505093054 45 316 4.0 7.0 0.00 0.00 0.00 94 1014.4
20260505092545 45 306 4.0 7.0 0.00 0.00 0.00 95 1014.3
20260505092044 45 304 3.0 7.0 0.00 0.00 0.00 94 1014.4
20260505091606 45 307 3.0 5.0 0.00 0.00 0.00 94 1014.5
20260505091045 45 318 4.0 5.0 0.00 0.00 0.00 94 1014.6
20260505090544 45 317 4.0 8.0 0.00 0.00 0.00 94 1014.7
20260505090057 45 321 4.0 8.0 0.00 0.00 0.00 94 1014.7
20260505085545 45 312 2.0 4.0 0.00 0.00 0.00 94 1014.7
20260505085044 46 304 2.0 5.0 0.00 0.00 0.00 94 1014.7
20260505084553 46 311 3.0 5.0 0.00 0.00 0.00 94 1015.0
20260505084043 46 306 3.0 5.0 0.00 0.00 0.00 94 1014.9
20260505083543 46 328 3.0 5.0 0.00 0.00 0.00 94 1014.9
20260505083056 46 317 2.0 5.0 0.00 0.00 0.00 94 1014.9
20260505082547 46 290 2.0 7.0 0.00 0.00 0.00 94 1014.9
20260505082044 46 311 3.0 8.0 0.00 0.00 0.00 93 1014.9
20260505081558 46 309 3.0 8.0 0.00 0.00 0.00 93 1014.9
20260505081044 46 302 4.0 8.0 0.00 0.00 0.00 93 1015.1
20260505080543 46 309 4.0 8.0 0.00 0.00 0.00 93 1015.1
20260505080108 46 312 3.0 8.0 0.00 0.00 0.00 93 1015.1
20260505075543 46 311 4.0 8.0 0.00 0.00 0.00 93 1015.2
20260505075043 46 303 3.0 8.0 0.00 0.00 0.00 93 1015.2
20260505074552 46 308 4.0 9.0 0.00 0.00 0.00 93 1015.2
20260505074043 46 310 4.0 9.0 0.00 0.00 0.00 93 1015.1
20260505073543 46 321 6.0 9.0 0.00 0.00 0.00 93 1015.1
20260505073051 46 311 4.0 9.0 0.00 0.00 0.00 94 1015.2
20260505072546 47 321 6.0 9.0 0.00 0.00 0.00 94 1015.1
20260505072046 47 329 4.0 9.0 0.00 0.00 0.00 94 1015.1
20260505071558 47 311 5.0 9.0 0.00 0.00 0.00 94 1015.0
20260505071044 47 323 5.0 9.0 0.00 0.00 0.00 94 1015.0
20260505070544 47 317 5.0 9.0 0.00 0.00 0.00 94 1014.8
20260505070052 47 320 5.0 9.0 0.00 0.00 0.00 93 1014.9
20260505065543 47 310 4.0 8.0 0.00 0.00 0.00 93 1015.0
20260505065043 47 320 4.0 8.0 0.00 0.00 0.00 93 1015.0
20260505064548 47 302 4.0 8.0 0.00 0.00 0.00 94 1015.0
20260505064046 47 307 5.0 7.0 0.00 0.00 0.00 94 1015.0
20260505063543 47 317 4.0 8.0 0.00 0.00 0.00 94 1014.9
20260505063114 47 319 3.0 8.0 0.00 0.00 0.00 94 1014.8
20260505062540 47 319 3.0 8.0 0.00 0.00 0.00 94 1014.8
20260505062043 47 319 3.0 6.0 0.00 0.00 0.00 93 1014.7
20260505061620 47 307 3.0 5.0 0.00 0.00 0.00 93 1014.7
20260505061044 47 309 2.0 4.0 0.00 0.00 0.00 93 1014.8
20260505060546 47 312 2.0 4.0 0.00 0.00 0.00 93 1014.7
20260505055544 47 317 0.0 4.0 0.00 0.00 0.00 93 1015.0
20260505055046 47 317 2.0 4.0 0.00 0.00 0.00 93 1015.1
20260505054555 47 317 2.0 5.0 0.00 0.00 0.00 92 1015.0
20260505054040 47 323 3.0 5.0 0.00 0.00 0.00 92 1015.1
20260505053543 47 309 2.0 5.0 0.00 0.00 0.00 92 1015.3
20260505053053 47 315 2.0 6.0 0.00 0.00 0.00 92 1015.3
20260505052543 47 317 3.0 6.0 0.00 0.00 0.00 92 1015.3
20260505052043 47 313 2.0 8.0 0.00 0.00 0.00 92 1015.3
20260505051609 47 321 4.0 8.0 0.00 0.00 0.00 92 1015.4
20260505051043 47 312 4.0 8.0 0.00 0.00 0.00 92 1015.4
20260505050543 47 313 3.0 7.0 0.00 0.00 0.00 93 1015.4
20260505041551 47 311 3.0 8.0 0.00 0.00 0.00 92 1015.1
20260505041043 47 311 4.0 8.0 0.00 0.00 0.00 92 1015.1
20260505040542 47 320 5.0 9.0 0.00 0.00 0.00 91 1015.0
20260505040049 47 309 5.0 9.0 0.00 0.00 0.00 91 1015.0
20260505035540 47 318 6.0 9.0 0.00 0.00 0.00 91 1014.9
20260505035043 48 311 4.0 8.0 0.00 0.00 0.00 91 1014.8
20260505034548 48 314 4.0 8.0 0.00 0.00 0.00 90 1014.7
20260505034044 48 321 3.0 6.0 0.00 0.00 0.00 90 1014.5
20260505033544 48 311 3.0 7.0 0.00 0.00 0.00 89 1014.6
20260505033046 48 327 3.0 7.0 0.00 0.00 0.00 89 1014.6
20260505032543 48 313 3.0 7.0 0.00 0.00 0.00 88 1014.6
20260505032046 48 320 3.0 5.0 0.00 0.00 0.00 88 1014.5
20260505031555 48 309 3.0 7.0 0.00 0.00 0.00 88 1014.5
20260505031044 48 307 3.0 7.0 0.00 0.00 0.00 88 1014.6
20260505030545 48 315 2.0 5.0 0.00 0.00 0.00 88 1014.6
20260505030048 49 315 3.0 6.0 0.00 0.00 0.00 88 1014.6
20260505025545 49 322 3.0 6.0 0.00 0.00 0.00 88 1014.6
20260505025045 49 317 2.0 5.0 0.00 0.00 0.00 87 1014.5
20260505024553 49 319 3.0 7.0 0.00 0.00 0.00 86 1014.4
20260505024045 49 298 3.0 8.0 0.00 0.00 0.00 87 1014.4
20260505023544 49 311 3.0 9.0 0.00 0.00 0.00 86 1014.6
20260505023051 49 303 4.0 10.0 0.00 0.00 0.00 86 1014.5
20260505022543 49 294 5.0 10.0 0.00 0.00 0.00 85 1014.5
20260505022043 49 313 4.0 10.0 0.00 0.00 0.00 85 1014.6
20260505021552 50 309 6.0 10.0 0.00 0.00 0.00 85 1014.4
20260505021044 50 289 5.0 10.0 0.00 0.00 0.00 85 1014.3
20260505020544 50 307 5.0 9.0 0.00 0.00 0.00 84 1014.4
20260505020059 50 319 5.0 10.0 0.00 0.00 0.00 84 1014.5
20260505015543 50 312 5.0 10.0 0.00 0.00 0.00 84 1014.6
20260505015047 51 310 5.0 10.0 0.00 0.00 0.00 84 1014.5
20260505014552 51 305 4.0 8.0 0.00 0.00 0.00 84 1014.5
20260505014043 51 321 4.0 8.0 0.00 0.00 0.00 84 1014.6
20260505013543 52 300 2.0 8.0 0.00 0.00 0.00 83 1014.6
20260505013103 52 326 4.0 7.0 0.00 0.00 0.00 83 1014.6
20260505012543 52 292 3.0 5.0 0.00 0.00 0.00 82 1014.7
20260505012044 52 303 3.0 5.0 0.00 0.00 0.00 82 1014.7
20260505011545 52 304 3.0 5.0 0.00 0.00 0.00 81 1014.9
20260505011044 53 312 3.0 5.0 0.00 0.00 0.00 81 1014.7
20260505010543 53 305 2.0 5.0 0.00 0.00 0.00 81 1014.7
20260505010110 53 298 1.0 5.0 0.00 0.00 0.00 82 1014.8